Location: Eastlake (historical)
(39.0077°N, 122.6678°W)
Time: 12:43:12
(UTC+00:00)

Cosmos 1151 Rocket - Pass Details

Date: 25 November 2020
Orbit: 593 x 615 km, 82.5° (Epoch: 25 January)

Event Time Altitude Azimuth Distance (km) Brightness Sun altitude
Exits shadow 13:03:27 - 3° (N) 2,344 6.0 -23.3°
Reaches altitude 10° 13:04:30 10° 7° (N) 1,935 5.6 -23.1°
Maximum altitude 13:08:34 42° 79° (E) 862 4.2 -22.3°
Drops below altitude 10° 13:12:36 10° 150° (SSE) 1,929 6.1 -21.5°
Sets 13:14:54 0° 158° (SSE) 2,830 6.9 -21.1°
